EW1979 Weather Reports


Display with metric or nautical units.
time (UTC)temp
F
wind
direction
speed
MPH
gust
MPH
rain 1hr
in
rain 24hr
in
rain mn
in
humidity
%
barometer
mb
20260502181611 66 76 0.0 0.0 0.00 0.00 0.00 60 1020.1
20260502161502 62 82 0.0 0.0 0.00 0.00 0.00 69 1021.2
20260502151508 59 75 0.0 0.0 0.00 0.00 0.00 73 1021.0
20260502123008 49 5 0.0 0.0 0.00 0.00 0.00 69 1019.7
20260502114512 48 9 0.0 0.0 0.00 0.00 0.00 68 1018.9
20260502113102 48 10 0.0 0.0 0.00 0.00 0.00 66 1018.8
20260502111605 48 10 0.0 0.0 0.00 0.00 0.00 65 1018.6
20260502104505 48 9 0.0 0.0 0.00 0.00 0.00 62 1018.4
20260502103108 48 10 0.0 0.0 0.00 0.00 0.00 61 1018.5
20260502101502 48 5 0.0 0.0 0.00 0.00 0.00 60 1018.2
20260502100122 48 5 0.0 0.0 0.00 0.00 0.00 59 1018.1
20260502091505 48 5 0.0 0.0 0.00 0.00 0.00 57 1017.2
20260502080108 48 5 0.0 0.0 0.00 0.00 0.00 52 1016.3
20260502063102 49 360 0.0 0.0 0.00 0.00 0.00 58 1016.1
20260502061603 49 5 0.0 0.0 0.00 0.00 0.00 58 1016.2
20260502060006 49 5 0.0 0.0 0.00 0.00 0.00 59 1016.2
20260502054616 49 5 0.0 0.0 0.00 0.00 0.00 58 1016.4
20260502053002 49 5 0.0 0.0 0.00 0.00 0.00 58 1016.1
20260502051507 50 355 0.0 0.0 0.00 0.00 0.00 57 1016.2
20260502050002 50 5 0.0 0.0 0.00 0.00 0.88 56 1016.4
20260502044603 50 9 0.0 0.0 0.00 0.00 0.88 56 1016.2
20260502043108 50 5 0.0 0.0 0.00 0.00 0.88 56 1016.5
20260502041636 50 5 0.0 0.0 0.00 0.00 0.88 57 1016.4
20260502040002 50 10 0.0 0.0 0.00 0.00 0.88 57 1016.2
20260502034504 51 52 0.0 0.0 0.00 0.00 0.88 54 1015.9
20260502033001 51 67 0.0 0.0 0.00 0.00 0.88 51 1015.6
20260502031604 51 19 0.0 0.0 0.00 0.00 0.88 46 1015.4
20260502030002 51 34 0.0 0.0 0.00 0.00 0.88 35 1015.2
20260502023113 51 24 0.0 0.0 0.00 0.00 0.88 22 1015.0
20260502021506 52 49 0.0 0.0 0.00 0.00 0.88 20 1014.7
20260502013003 53 346 0.0 0.0 0.00 0.00 0.88 21 1013.8
20260502011605 53 43 0.0 0.0 0.00 0.00 0.88 21 1013.7
20260502010104 53 14 0.0 0.0 0.00 0.00 0.88 20 1013.5
20260502004503 53 25 0.0 0.0 0.00 0.00 0.88 16 1013.2
20260502003006 53 16 0.0 0.0 0.00 0.00 0.88 13 1012.8
20260502001605 53 360 0.0 0.0 0.00 0.00 0.88 12 1012.5
20260502000105 53 5 0.0 0.0 0.00 0.00 0.88 11 1012.2
20260501233103 54 9 0.0 0.0 0.00 0.00 0.88 5 1011.3
20260501231504 54 63 0.0 0.0 0.00 0.00 0.88 4 1010.9
20260501230004 54 5 0.0 0.0 0.00 0.00 0.88 2 1010.7
20260501224512 55 360 0.0 0.0 0.00 0.00 0.88 1 1010.4
20260501223112 55 360 0.0 0.0 0.00 0.00 0.88 100 1010.4
20260501221625 55 355 0.0 0.0 0.00 0.00 0.87 100 1010.7
20260501220002 55 351 0.0 0.0 0.00 0.00 0.87 100 1011.0
20260501214502 55 346 0.0 0.0 0.00 0.00 0.87 100 1011.1
20260501213114 56 360 0.0 0.0 0.00 0.00 0.86 100 1010.4
20260501211606 56 360 0.0 0.0 0.00 0.00 0.85 100 1010.8
20260501203005 57 355 0.0 0.0 0.00 0.00 0.83 100 1011.1
20260501201503 57 343 0.0 0.0 0.00 0.00 0.79 100 1011.1
20260501200008 57 355 0.0 0.0 0.00 0.00 0.75 100 1010.7
20260501194507 58 347 0.0 0.0 0.00 0.00 0.74 100 1010.3
20260501193104 58 342 0.0 0.0 0.00 0.00 0.74 100 1009.7
20260501184611 59 13 0.0 0.0 0.00 0.00 0.74 100 1008.6
20260501183105 58 18 0.0 0.0 0.00 0.00 0.72 100 1008.6